Weather History for Bangkok (Don Mueang), Thailand

Change the Weather History Date:

Friday, November 16, 2012

  Actual Average Record
Temperature  
Mean Temperature 86 °F -  
Max Temperature 90 °F 87 °F 95 °F (2002)
Min Temperature 81 °F 72 °F 69 °F (2001)
Cooling Degree Days 20    
Growing Degree Days 36 (Base 50)    
Moisture  
Dew Point 72 °F    
Average Humidity 63    
Maximum Humidity 79    
Minimum Humidity 43    
Precipitation  
Precipitation 0.00 in 0.03 in - ()
Sea Level Pressure  
Sea Level Pressure 29.83 in    
Wind  
Wind Speed 5 mph ()    
Max Wind Speed 10 mph    
Max Gust Speed -    
Visibility 6.0 miles    
Events      
Averages and records for this station are not official NWS values.
T = Trace of Precipitation, MM = Missing Value Source: Averaged Metar Reports

Daily Weather History Graph

Daily Weather History Graph

Search for Another Location

Airport:

Trip Planner

Search our weather history database for the weather conditions in past years. The results will help you decide how hot, cold, wet, or windy it might be!

Date:

Astronomy

Nov. 16, 2012 Rise Set
Actual Time 6:18 AM ICT 5:46 PM ICT
Civil Twilight 5:55 AM ICT 6:09 PM ICT
Nautical Twilight 5:29 AM ICT 6:34 PM ICT
Astronomical Twilight 5:03 AM ICT 7:00 PM ICT
Moon 8:32 AM ICT (11/16) 8:17 PM ICT (11/16)
Length of Visible Light 12h 13m
Length of Day
11h 28m
Waxing Crescent, 8% of the Moon is Illuminated
Nov 16
Waxing Crescent
Nov 20
First Quarter
Nov 28
Full
Dec 6
Last Quarter
Dec 13
New

Hourly Weather History & Observations

Time (ICT) Temp. Heat Index Dew Point Humidity Pressure Visibility Wind Dir Wind Speed Gust Speed Precip Events Conditions
12:00 AM 86.0 °F 93.4 °F 73.4 °F 66% 29.86 in 6.2 mi NNW 4.6 mph - N/A   Mostly Cloudy
12:30 AM 84.2 °F 90.9 °F 73.4 °F 70% 29.86 in 5.6 mi NNW 8.1 mph - N/A   Mostly Cloudy
1:00 AM 85 °F - 75 °F 64% 29.85 in 6 mi North 6.9 mph - -   Mist
1:00 AM 84.2 °F 92.3 °F 75.2 °F 74% 29.83 in 5.6 mi North 6.9 mph - N/A   Mostly Cloudy
1:30 AM 84.2 °F 90.9 °F 73.4 °F 70% 29.83 in 5.6 mi NNW 5.8 mph - N/A   Mostly Cloudy
2:00 AM 84.2 °F 92.3 °F 75.2 °F 74% 29.83 in 5.6 mi NNW 5.8 mph - N/A   Mostly Cloudy
2:30 AM 84.2 °F 92.3 °F 75.2 °F 74% 29.83 in 5.6 mi NNW 6.9 mph - N/A   Scattered Clouds
3:00 AM 82.4 °F 88.2 °F 73.4 °F 74% 29.80 in 5.6 mi North 5.8 mph - N/A   Scattered Clouds
3:30 AM 82.4 °F 88.2 °F 73.4 °F 74% 29.80 in 5.6 mi North 5.8 mph - N/A   Scattered Clouds
4:00 AM 82.4 °F 89.5 °F 75.2 °F 79% 29.80 in 5.6 mi NNW 5.8 mph - N/A   Scattered Clouds
4:30 AM 82.4 °F 89.5 °F 75.2 °F 79% 29.80 in 5.6 mi NNW 5.8 mph - N/A   Scattered Clouds
5:00 AM 82.4 °F 89.5 °F 75.2 °F 79% 29.80 in 5.6 mi NNW 5.8 mph - N/A   Scattered Clouds
5:30 AM 82.4 °F 89.5 °F 75.2 °F 79% 29.80 in 5.6 mi North 5.8 mph - N/A   Scattered Clouds
6:00 AM 82.4 °F 89.5 °F 75.2 °F 79% 29.83 in 5.6 mi North 4.6 mph - N/A   Scattered Clouds
6:30 AM 82.4 °F 89.5 °F 75.2 °F 79% 29.83 in 5.6 mi North 4.6 mph - N/A   Scattered Clouds
7:00 AM 82 °F - 75 °F 74% 29.86 in 6 mi NNW 3.5 mph - -   Mist
7:00 AM 82.4 °F 89.5 °F 75.2 °F 79% 29.86 in 5.6 mi NNW 3.5 mph - N/A   Mostly Cloudy
7:30 AM 82.4 °F 89.5 °F 75.2 °F 79% 29.86 in 5.6 mi NNW 3.5 mph - N/A   Mostly Cloudy
8:00 AM 84.2 °F 92.3 °F 75.2 °F 74% 29.86 in 6.2 mi North 6.9 mph - N/A   Mostly Cloudy
8:30 AM 86.0 °F 93.4 °F 73.4 °F 66% 29.89 in 6.2 mi ENE 6.9 mph - N/A   Mostly Cloudy
9:00 AM 86.0 °F 89.4 °F 68.0 °F 55% 29.89 in 6.2 mi NNE 8.1 mph - N/A   Mostly Cloudy
9:30 AM 86.0 °F 89.4 °F 68.0 °F 55% 29.89 in 6.2 mi ENE 4.6 mph - N/A   Scattered Clouds
10:00 AM 86.0 °F 89.4 °F 68.0 °F 55% 29.89 in 6.2 mi East 4.6 mph - N/A   Scattered Clouds
10:30 AM 87.8 °F 92.6 °F 69.8 °F 55% 29.89 in 6.2 mi SSE 6.9 mph - N/A   Scattered Clouds
11:00 AM 86.0 °F 90.4 °F 69.8 °F 58% 29.89 in 6.2 mi ESE 5.8 mph - N/A   Mostly Cloudy
11:30 AM 86.0 °F 91.8 °F 71.6 °F 62% 29.86 in 6.2 mi East 9.2 mph - N/A   Mostly Cloudy
12:00 PM 87.8 °F 93.8 °F 71.6 °F 58% 29.86 in 6.2 mi East 5.8 mph - N/A   Mostly Cloudy
12:30 PM 87.8 °F 92.6 °F 69.8 °F 55% 29.83 in 6.2 mi ENE 8.1 mph - N/A   Mostly Cloudy
1:00 PM 88 °F - 71 °F 47% 29.84 in 6 mi ESE 3.5 mph - -   Scattered Clouds
1:00 PM 87.8 °F 93.8 °F 71.6 °F 58% 29.83 in 6.2 mi ESE 3.5 mph - N/A   Mostly Cloudy
1:30 PM 87.8 °F 92.6 °F 69.8 °F 55% 29.80 in 6.2 mi NNE 5.8 mph - N/A   Mostly Cloudy
2:00 PM 87.8 °F 92.6 °F 69.8 °F 55% 29.80 in 6.2 mi SSW 4.6 mph - N/A   Mostly Cloudy
2:30 PM 89.6 °F 93.4 °F 68.0 °F 49% 29.77 in 6.2 mi WSW 3.5 mph - N/A   Mostly Cloudy
3:00 PM 89.6 °F 94.7 °F 69.8 °F 52% 29.77 in 6.2 mi ESE 2.3 mph - N/A   Mostly Cloudy
3:30 PM 89.6 °F 92.2 °F 66.2 °F 46% 29.77 in 6.2 mi ESE 4.6 mph - N/A   Mostly Cloudy
4:00 PM 89.6 °F 91.1 °F 64.4 °F 43% 29.77 in 6.2 mi SSE 2.3 mph - N/A   Mostly Cloudy
4:30 PM 89.6 °F 92.2 °F 66.2 °F 46% 29.77 in 6.2 mi NNE 8.1 mph - N/A   Mostly Cloudy
5:00 PM 87.8 °F 91.4 °F 68.0 °F 52% 29.77 in 6.2 mi North 8.1 mph - N/A   Mostly Cloudy
5:30 PM 87.8 °F 90.4 °F 66.2 °F 49% 29.80 in 6.2 mi North 6.9 mph - N/A   Mostly Cloudy
6:00 PM 87.8 °F 91.4 °F 68.0 °F 52% 29.80 in 6.2 mi North 10.4 mph - N/A   Mostly Cloudy
6:30 PM 87.8 °F 91.4 °F 68.0 °F 52% 29.80 in 6.2 mi North 8.1 mph - N/A   Mostly Cloudy
7:00 PM 88 °F - 70 °F 46% 29.83 in 6 mi WNW 3.5 mph - -   Scattered Clouds
7:00 PM 87.8 °F 92.6 °F 69.8 °F 55% 29.80 in 6.2 mi WNW 3.5 mph - N/A   Mostly Cloudy
7:30 PM 87.8 °F 93.8 °F 71.6 °F 58% 29.83 in 6.2 mi WNW 4.6 mph - N/A   Mostly Cloudy
8:00 PM 87.8 °F 93.8 °F 71.6 °F 58% 29.83 in 6.2 mi WNW 6.9 mph - N/A   Mostly Cloudy
8:30 PM 87.8 °F 93.8 °F 71.6 °F 58% 29.83 in 6.2 mi NE 4.6 mph - N/A   Mostly Cloudy
9:00 PM 86.0 °F 93.4 °F 73.4 °F 66% 29.86 in 6.2 mi NNE 3.5 mph - N/A   Mostly Cloudy
9:30 PM 86.0 °F 93.4 °F 73.4 °F 66% 29.86 in 6.2 mi NNW 3.5 mph - N/A   Mostly Cloudy
10:00 PM 86.0 °F 93.4 °F 73.4 °F 66% 29.86 in 6.2 mi NNE 8.1 mph - N/A   Mostly Cloudy
10:30 PM 86.0 °F 93.4 °F 73.4 °F 66% 29.86 in 6.2 mi NNE 3.5 mph - N/A   Mostly Cloudy
11:00 PM 86.0 °F 93.4 °F 73.4 °F 66% 29.86 in 6.2 mi NNW 5.8 mph - N/A   Mostly Cloudy
11:30 PM 86.0 °F 93.4 °F 73.4 °F 66% 29.86 in 6.2 mi NNW 5.8 mph - N/A   Mostly Cloudy